Wind_Speed
6 4 3 2 3 4 4 4 4 6 6 5 4 4 4 3 2 2 2 1 2 3 4 6 6 7 8 8 8 8 8 9 9 9 9 9 10 10 10 10 11 11 11 11 11 12 13 13 14
7 5 5 4 4 3 4 3 5 7 7 6 5 4 4 3 2 2 2 2 3 4 5 6 6 6 7 8 8 8 8 9 9 9 9 10 10 10 10 11 11 11 12 12 12 12 12 13 13
9 8 6 6 5 4 3 4 5 7 7 6 5 4 3 3 2 2 2 3 3 4 5 6 6 7 7 8 8 8 8 8 8 9 9 9 10 11 11 11 11 12 12 12 13 13 13 13 13
11 10 9 7 6 6 4 5 6 7 7 6 5 4 3 3 2 2 2 2 3 4 5 6 6 7 7 7 7 7 7 8 8 9 10 10 10 11 11 11 11 12 12 13 13 13 13 13 14
13 12 11 9 7 6 5 5 6 7 6 6 5 4 3 2 2 1 1 2 3 4 6 6 6 7 7 7 7 7 7 8 8 9 10 10 11 11 11 12 12 12 13 13 13 13 13 13 13
15 14 13 11 9 7 6 6 6 6 6 6 5 4 3 2 1 1 1 3 4 5 5 6 6 7 7 7 7 7 7 8 9 10 10 11 11 11 12 12 12 12 12 13 13 13 13 13 13
16 15 14 13 10 8 7 7 7 6 6 5 4 4 3 1 0 0 1 3 4 4 5 6 6 6 7 7 7 7 8 8 9 10 10 11 11 12 12 12 12 12 13 13 13 13 13 13 12
18 18 15 14 12 10 10 9 8 8 6 5 5 4 3 1 1 0 1 3 4 5 6 6 6 6 6 7 7 7 8 9 9 10 10 11 12 13 13 13 13 13 13 13 13 13 13 13 13
17 17 16 15 13 11 11 9 8 7 6 5 4 3 2 1 1 1 1 3 4 4 5 6 6 6 6 6 7 7 8 9 10 10 11 12 13 13 13 13 13 13 13 13 13 13 13 13 13
19 17 17 16 14 12 11 9 7 6 5 4 3 2 1 1 1 2 2 3 4 4 4 5 6 6 6 6 7 8 8 9 10 10 11 12 13 13 14 14 13 13 13 13 14 14 14 13 13
20 19 18 16 14 12 11 9 8 6 6 5 3 2 1 1 2 3 4 4 3 3 4 4 4 5 5 6 6 7 8 9 10 11 11 12 13 13 14 14 13 13 13 14 14 14 14 14 13
22 21 19 17 14 13 11 10 8 6 5 5 4 2 2 2 2 3 3 4 4 4 4 4 4 4 4 5 6 7 8 9 9 10 11 12 13 13 14 14 14 14 14 14 15 15 14 14 14
24 22 20 19 16 13 10 9 8 7 6 6 5 3 2 1 2 3 4 4 4 4 3 3 3 3 4 5 6 7 8 9 10 10 12 13 14 14 14 14 15 15 15 15 15 15 14 14 14
24 22 20 20 16 13 11 9 8 8 6 5 4 3 2 2 2 3 3 3 3 3 2 3 4 4 4 5 6 7 8 9 10 11 12 13 14 15 15 15 15 15 15 15 16 15 14 13 12
24 23 21 19 17 14 11 10 8 8 7 6 5 3 3 2 2 2 2 2 2 2 2 3 3 3 4 5 6 7 8 9 10 11 12 13 14 15 15 15 16 17 16 16 16 14 14 12 11
25 23 21 19 17 15 13 10 9 8 7 6 5 4 3 2 1 1 1 0 1 1 2 2 3 3 4 6 7 7 8 9 10 11 12 13 14 15 16 16 17 17 17 17 16 14 13 11 10
25 23 21 19 17 15 13 10 9 9 7 7 6 5 4 3 2 1 1 1 1 1 2 3 3 4 5 7 8 8 9 9 11 12 12 13 14 15 16 17 18 18 18 18 16 14 12 11 9
24 22 21 19 18 16 14 12 11 9 7 6 6 6 5 4 2 1 1 1 1 2 2 3 4 5 6 7 8 9 9 10 11 12 13 14 15 16 17 18 18 19 18 17 16 14 12 10 9
24 23 21 20 18 16 14 12 11 10 9 8 7 6 5 4 2 2 2 2 2 3 3 4 4 5 5 6 7 8 9 10 11 12 13 14 15 16 18 18 19 19 18 17 16 14 12 10 9
24 23 23 21 19 17 15 13 12 10 9 8 7 6 5 5 4 3 3 3 3 3 3 4 4 4 5 6 7 8 9 11 12 13 14 14 15 16 18 19 19 18 18 17 16 15 13 11 9
25 24 23 22 20 19 16 13 12 9 8 7 7 6 5 5 4 4 3 3 3 3 4 4 4 5 5 6 7 8 10 11 12 13 14 15 16 16 17 19 19 18 18 17 17 16 14 11 9
24 23 23 21 19 18 15 13 12 9 8 7 7 6 5 5 5 4 4 4 4 3 3 4 4 5 6 6 7 9 10 11 12 13 14 15 16 17 18 18 19 19 18 18 17 16 14 12 9
23 22 22 21 20 17 15 13 11 10 9 8 7 6 6 6 5 4 3 3 3 3 3 3 3 4 5 7 8 9 10 11 12 13 14 16 16 17 18 19 19 19 19 19 18 17 14 12 10
24 24 23 21 19 18 15 13 12 10 9 8 7 7 6 6 5 4 3 3 3 3 3 3 3 4 5 6 8 9 10 11 12 13 14 16 16 17 17 18 18 18 18 19 18 17 15 13 11
25 24 23 21 20 18 15 14 12 10 9 8 8 7 6 6 5 4 4 3 3 3 3 3 3 4 5 6 7 9 10 11 12 13 14 15 16 17 18 18 19 18 18 18 18 18 17 14 12
25 24 22 20 19 18 16 14 12 10 8 8 8 7 7 6 5 5 5 4 3 3 3 3 3 3 4 5 7 8 9 10 12 13 14 15 16 17 18 19 19 19 18 18 18 18 17 16 14
24 22 20 18 18 17 16 13 11 9 8 8 7 7 7 6 6 6 5 5 4 4 3 2 2 2 3 5 6 8 9 10 12 13 14 15 16 17 18 19 19 19 19 18 18 17 17 16 14
22 22 21 20 19 18 16 13 10 8 8 7 7 7 7 7 7 6 5 5 4 4 3 2 1 1 2 4 5 7 8 10 11 12 14 15 16 17 17 18 19 20 20 20 19 18 17 16 15
21 22 21 20 19 18 16 12 10 9 8 8 8 8 7 7 7 6 6 6 5 4 3 2 1 1 3 4 5 7 8 10 11 12 14 15 16 17 18 18 19 20 20 21 20 20 18 17 15
21 21 21 21 20 18 14 11 11 10 9 8 8 8 8 8 7 7 7 6 4 3 3 2 2 3 3 4 5 7 9 10 11 12 13 14 15 16 18 19 19 20 21 21 21 21 20 18 17
Wind_Direction
219 216 223 197 187 194 197 190 182 155 154 168 181 183 177 179 175 222 249 303 350 349 341 338 338 334 334 333 330 327 325 324 323 322 323 323 321 318 316 312 310 307 305 301 295 288 284 280 275
219 214 212 199 195 194 200 188 168 145 146 153 167 174 165 160 167 210 253 301 334 339 338 335 336 332 331 330 328 327 327 325 323 322 323 322 322 320 317 313 310 306 305 301 296 291 287 283 278
214 212 209 200 199 192 193 185 162 148 152 151 158 160 156 162 181 212 261 294 322 333 336 334 333 330 328 329 327 325 325 325 324 324 323 322 320 318 316 312 309 305 303 301 297 292 288 285 280
210 211 211 209 200 198 194 160 150 143 152 155 156 162 163 165 179 212 262 306 328 334 335 334 329 326 326 328 326 325 323 323 325 325 324 321 319 318 316 315 312 309 305 302 300 294 290 286 282
212 212 210 208 212 208 194 164 144 142 152 159 160 159 159 161 164 175 315 337 336 333 333 335 331 328 327 326 326 324 322 324 325 325 324 322 321 319 317 316 314 311 307 305 302 298 293 289 285
215 215 211 209 213 211 199 176 152 147 154 162 167 162 156 133 127 155 326 326 322 328 331 332 328 328 327 322 322 321 322 325 326 326 327 326 325 323 321 319 317 314 311 308 303 298 294 291 288
216 214 210 213 214 215 201 180 171 166 166 169 169 164 163 149 120 319 320 324 319 325 329 324 326 328 326 324 324 323 325 327 327 328 330 330 328 326 324 321 319 317 313 310 306 301 297 292 288
216 213 212 213 209 208 204 191 180 175 173 169 167 167 167 172 177 227 329 327 322 322 326 326 329 327 325 324 326 327 328 328 329 330 331 332 331 328 326 323 320 318 315 312 309 304 300 294 288
214 212 213 212 209 208 209 197 179 176 174 172 172 176 181 208 260 254 302 317 322 324 326 325 326 326 326 324 326 328 329 330 333 334 335 336 334 332 330 326 322 318 316 314 312 308 302 296 288
216 216 215 215 210 206 204 195 176 174 171 171 181 196 225 263 306 320 323 328 331 329 327 326 323 322 321 320 322 325 330 335 337 338 338 338 338 337 335 331 327 322 318 315 313 310 303 296 289
214 216 216 211 207 202 199 194 185 175 177 180 187 205 239 301 319 318 322 329 329 327 328 327 318 316 316 319 324 327 334 338 340 341 341 342 342 341 339 335 331 326 322 319 317 313 306 298 290
214 216 217 214 211 203 197 192 188 184 191 188 193 218 246 305 317 321 321 320 320 322 326 324 320 321 321 322 327 331 336 339 341 341 342 344 346 346 344 341 337 333 328 323 320 316 308 301 292
212 216 216 214 213 203 194 192 194 205 204 204 214 228 238 276 306 312 310 317 323 325 323 329 331 329 333 336 340 340 340 341 341 343 346 351 352 352 350 347 344 338 334 328 322 318 312 304 295
209 210 208 204 203 200 200 198 203 208 204 209 215 229 244 258 278 298 315 328 331 335 339 346 348 349 347 346 345 344 344 346 349 351 353 354 356 355 354 353 349 345 340 335 329 322 316 311 300
204 204 203 202 201 201 204 206 214 211 204 208 218 237 247 241 249 271 303 321 327 344 351 349 354 356 355 353 350 349 352 354 354 355 357 358 358 357 357 355 352 349 345 342 337 331 325 319 307
202 203 203 200 201 201 206 212 214 210 205 204 207 216 214 223 210 229 260 276 348 4 359 352 2 8 8 2 357 355 354 356 358 360 1 0 360 360 358 354 353 351 348 345 343 341 335 326 316
200 199 199 200 198 201 206 213 209 205 201 199 197 200 211 213 203 205 199 150 72 25 9 7 15 18 14 6 2 357 355 359 2 1 1 1 1 2 360 357 356 354 350 348 347 347 344 338 327
200 198 198 199 196 200 204 205 205 201 194 191 188 191 199 199 199 204 175 135 79 52 41 33 30 23 16 10 5 0 359 1 2 1 0 1 2 2 360 358 357 355 353 353 352 351 350 345 338
196 195 196 197 196 200 201 199 198 195 191 191 188 189 198 204 209 188 137 105 81 67 56 45 35 28 19 13 10 8 7 5 3 1 0 0 1 1 360 358 357 356 357 358 358 356 353 351 347
193 193 193 194 192 194 194 193 193 191 188 189 190 191 195 196 197 178 145 115 95 77 67 54 42 36 27 20 16 13 10 9 7 5 3 2 1 1 2 360 360 1 2 2 3 3 360 357 355
190 193 194 192 189 188 186 187 188 186 187 190 186 182 187 196 190 179 158 127 107 86 72 63 55 47 36 26 20 16 13 10 9 8 6 5 4 3 4 5 4 5 6 5 3 4 5 3 2
184 188 187 187 185 179 180 181 184 184 187 189 185 183 185 184 181 172 149 121 109 97 85 71 62 49 37 28 22 18 15 13 11 9 6 5 5 6 6 6 6 7 7 8 8 7 6 7 8
184 185 180 179 179 178 176 179 176 178 183 185 182 176 175 176 175 169 146 124 120 110 95 79 68 52 41 33 26 21 17 14 12 10 8 8 7 7 7 8 9 9 10 9 10 11 12 13 13
177 177 175 175 177 176 175 179 176 179 178 180 180 178 180 176 173 165 153 144 137 124 112 97 84 63 49 41 34 26 21 17 14 13 11 9 8 8 8 9 10 11 12 12 12 13 15 17 17
178 176 175 177 179 178 178 176 171 177 181 182 184 183 185 184 178 175 175 168 154 139 129 112 95 72 53 41 32 26 21 18 15 12 11 9 9 9 10 10 11 11 12 12 14 16 16 15 15
179 180 183 185 182 179 179 174 171 177 184 189 189 188 186 187 190 189 183 177 165 151 139 123 102 74 52 38 29 23 18 15 12 9 8 9 9 9 9 9 9 9 9 10 11 13 14 13 12
181 183 187 192 190 189 188 178 176 180 185 188 193 195 196 194 196 193 186 180 173 161 154 144 114 70 39 26 22 17 13 10 7 6 5 7 8 9 8 8 8 8 7 6 5 6 8 8 7
189 189 189 193 197 200 195 190 189 187 189 190 193 193 197 198 196 192 188 184 180 175 176 170 137 28 9 6 6 5 5 5 5 5 5 6 6 6 7 6 6 6 6 4 2 1 0 1 2
191 194 196 199 203 202 199 193 192 188 189 192 192 195 196 197 194 190 189 186 185 187 192 208 252 310 334 344 350 356 359 0 360 0 1 1 1 1 1 2 2 2 2 1 0 358 355 354 354
195 197 199 202 204 205 201 191 195 193 189 194 196 197 196 196 195 193 192 190 192 200 216 238 270 298 319 332 340 346 350 352 353 354 355 355 355 355 356 357 358 357 357 357 356 355 352 349 346
Height
5883 5883 5883 5883 5883 5883 5882 5883 5883 5884 5885 5885 5886 5888 5889 5891 5892 5894 5891 5890 5890 5890 5889 5889 5888 5887 5887 5886 5885 5884 5883 5882 5881 5879 5878 5876 5875 5874 5872 5871 5870 5868 5867 5866 5865 5863 5862 5862 5861
5882 5882 5882 5883 5882 5882 5882 5882 5883 5884 5885 5885 5886 5887 5888 5889 5890 5890 5889 5890 5890 5889 5889 5888 5887 5887 5886 5885 5884 5883 5882 5881 5879 5878 5877 5875 5874 5872 5871 5869 5868 5866 5865 5864 5863 5861 5860 5859 5859
5880 5881 5882 5881 5881 5882 5882 5881 5882 5884 5885 5885 5886 5887 5888 5889 5889 5889 5889 5889 5889 5888 5888 5887 5887 5886 5885 5884 5883 5882 5881 5880 5878 5877 5875 5874 5872 5871 5869 5867 5866 5864 5863 5861 5860 5859 5858 5857 5856
5879 5880 5881 5881 5880 5881 5881 5881 5881 5883 5884 5885 5887 5887 5887 5889 5889 5889 5888 5888 5888 5888 5887 5887 5886 5885 5884 5883 5882 5881 5880 5879 5877 5876 5874 5873 5871 5869 5867 5866 5864 5862 5861 5859 5858 5857 5856 5855 5854
5877 5879 5879 5879 5879 5880 5880 5880 5881 5883 5884 5885 5886 5887 5887 5888 5888 5887 5887 5887 5887 5887 5886 5886 5885 5884 5883 5882 5881 5880 5879 5878 5876 5875 5873 5871 5869 5867 5865 5863 5862 5860 5858 5857 5855 5854 5853 5852 5851
5876 5877 5878 5879 5879 5880 5880 5880 5881 5883 5884 5885 5886 5886 5887 5888 5888 5887 5887 5887 5887 5886 5886 5885 5884 5883 5882 5881 5880 5879 5878 5876 5875 5873 5871 5869 5867 5865 5863 5861 5860 5858 5856 5854 5853 5852 5850 5849 5848
5874 5875 5876 5877 5878 5879 5880 5880 5881 5882 5883 5884 5885 5886 5886 5887 5887 5887 5886 5886 5886 5885 5885 5884 5883 5882 5881 5880 5879 5878 5876 5875 5873 5871 5869 5867 5865 5863 5861 5859 5857 5856 5854 5852 5850 5849 5848 5847 5846
5871 5873 5874 5875 5877 5878 5879 5879 5880 5882 5883 5884 5885 5885 5886 5887 5887 5886 5886 5885 5885 5884 5884 5883 5882 5881 5880 5879 5878 5877 5875 5874 5872 5870 5868 5866 5864 5861 5859 5857 5855 5853 5851 5850 5848 5846 5845 5844 5843
5868 5871 5872 5874 5875 5877 5877 5878 5880 5881 5882 5883 5884 5885 5886 5886 5886 5886 5885 5885 5885 5884 5883 5882 5881 5880 5879 5878 5877 5876 5874 5872 5870 5868 5866 5864 5862 5859 5857 5855 5853 5851 5849 5847 5845 5844 5842 5841 5840
5866 5868 5870 5872 5873 5876 5877 5878 5879 5880 5881 5882 5883 5884 5884 5884 5885 5885 5885 5884 5884 5883 5882 5881 5880 5879 5878 5877 5876 5874 5873 5871 5869 5867 5865 5862 5860 5857 5855 5852 5850 5848 5846 5844 5843 5841 5839 5838 5837
5864 5866 5868 5870 5871 5874 5876 5877 5878 5880 5881 5882 5882 5883 5883 5883 5884 5884 5883 5883 5883 5882 5881 5880 5880 5878 5877 5876 5875 5873 5871 5869 5867 5865 5863 5861 5858 5856 5853 5850 5848 5846 5844 5842 5840 5838 5836 5835 5834
5862 5864 5866 5868 5870 5872 5874 5876 5878 5879 5880 5881 5882 5882 5883 5883 5883 5882 5882 5882 5882 5881 5880 5880 5879 5878 5877 5875 5874 5872 5870 5868 5866 5864 5862 5859 5857 5854 5851 5848 5846 5843 5841 5839 5837 5835 5833 5832 5831
5858 5861 5864 5867 5869 5871 5873 5875 5877 5878 5879 5880 5880 5881 5882 5882 5882 5881 5881 5881 5880 5880 5879 5878 5878 5877 5875 5874 5872 5871 5869 5867 5865 5863 5860 5857 5855 5852 5849 5846 5844 5841 5839 5836 5834 5831 5829 5828 5827
5855 5858 5862 5865 5867 5869 5872 5874 5876 5877 5878 5879 5880 5880 5880 5881 5880 5880 5880 5879 5879 5878 5878 5877 5876 5875 5874 5873 5871 5870 5868 5866 5864 5861 5859 5856 5853 5851 5848 5845 5842 5839 5836 5833 5831 5828 5826 5824 5823
5852 5856 5859 5862 5865 5868 5871 5873 5875 5876 5877 5878 5878 5879 5879 5880 5880 5879 5879 5878 5878 5877 5877 5876 5875 5874 5873 5872 5870 5869 5867 5865 5863 5860 5858 5855 5852 5850 5847 5844 5841 5838 5834 5831 5828 5825 5823 5821 5820
5849 5853 5857 5860 5863 5866 5871 5872 5873 5874 5875 5876 5877 5878 5878 5879 5879 5879 5878 5878 5877 5876 5876 5875 5875 5874 5872 5871 5870 5868 5866 5864 5862 5860 5857 5855 5852 5849 5846 5843 5840 5836 5833 5829 5826 5823 5821 5819 5817
5846 5851 5855 5858 5861 5864 5868 5870 5872 5873 5874 5875 5876 5877 5877 5878 5878 5878 5878 5877 5876 5876 5875 5875 5874 5873 5872 5871 5869 5867 5866 5863 5861 5859 5857 5854 5851 5848 5845 5842 5838 5835 5831 5827 5824 5821 5819 5816 5815
5846 5850 5853 5856 5859 5863 5866 5868 5870 5871 5872 5874 5875 5876 5876 5876 5876 5876 5877 5876 5876 5875 5875 5874 5873 5873 5871 5870 5869 5867 5865 5863 5861 5859 5856 5854 5851 5848 5845 5841 5837 5834 5830 5826 5823 5820 5817 5815 5813
5843 5847 5851 5855 5858 5861 5864 5867 5868 5870 5871 5872 5873 5874 5875 5875 5875 5875 5875 5875 5875 5874 5874 5874 5873 5872 5871 5870 5868 5867 5865 5863 5861 5858 5856 5853 5851 5847 5844 5840 5836 5833 5829 5825 5822 5819 5816 5814 5812
5840 5845 5848 5852 5855 5859 5862 5864 5866 5867 5869 5870 5872 5873 5873 5874 5874 5874 5874 5875 5874 5874 5874 5873 5873 5872 5871 5870 5868 5867 5865 5863 5861 5858 5856 5853 5850 5847 5844 5840 5836 5832 5828 5825 5821 5818 5815 5813 5811
5838 5843 5847 5850 5853 5857 5860 5863 5864 5866 5867 5869 5870 5871 5872 5872 5873 5873 5874 5874 5874 5874 5873 5873 5873 5872 5871 5870 5868 5867 5865 5863 5861 5858 5856 5853 5850 5847 5844 5840 5836 5832 5828 5825 5821 5818 5815 5812 5811
5837 5841 5845 5849 5853 5855 5859 5861 5863 5865 5866 5868 5869 5870 5871 5871 5872 5872 5873 5873 5873 5873 5873 5873 5873 5872 5871 5870 5868 5867 5865 5863 5861 5858 5856 5853 5850 5847 5843 5840 5836 5832 5829 5825 5822 5818 5815 5812 5811
5836 5840 5844 5848 5851 5854 5857 5860 5863 5864 5865 5867 5868 5869 5870 5871 5871 5872 5872 5872 5873 5873 5873 5873 5872 5872 5871 5870 5868 5867 5865 5863 5861 5859 5856 5853 5850 5847 5843 5840 5837 5833 5829 5826 5822 5819 5815 5813 5811
5835 5839 5843 5846 5849 5853 5857 5859 5862 5863 5864 5865 5867 5868 5869 5870 5871 5871 5871 5872 5872 5873 5873 5872 5872 5872 5871 5870 5868 5867 5865 5863 5861 5859 5856 5853 5850 5847 5844 5841 5837 5834 5830 5827 5823 5819 5816 5814 5812
5834 5839 5842 5845 5848 5852 5855 5858 5861 5862 5863 5864 5866 5867 5868 5869 5870 5870 5871 5871 5872 5872 5872 5872 5872 5871 5871 5870 5868 5867 5865 5863 5861 5859 5856 5853 5850 5847 5844 5841 5837 5834 5831 5828 5824 5821 5818 5815 5813
5834 5839 5843 5845 5848 5851 5853 5856 5859 5860 5861 5862 5864 5865 5867 5868 5869 5869 5870 5871 5871 5871 5871 5871 5871 5871 5870 5870 5868 5867 5865 5863 5861 5859 5856 5854 5851 5847 5844 5841 5838 5834 5831 5828 5825 5822 5819 5816 5814
5834 5838 5842 5845 5847 5849 5851 5854 5857 5858 5859 5861 5863 5864 5865 5867 5868 5868 5869 5870 5870 5870 5871 5871 5871 5871 5870 5869 5868 5866 5865 5863 5861 5859 5856 5853 5851 5848 5845 5841 5838 5834 5831 5828 5825 5822 5820 5817 5815
5834 5837 5841 5843 5845 5847 5850 5853 5855 5856 5858 5860 5861 5863 5864 5865 5866 5867 5868 5869 5869 5870 5870 5870 5870 5870 5870 5869 5867 5866 5864 5863 5860 5858 5856 5853 5850 5847 5844 5841 5838 5835 5831 5828 5825 5822 5820 5817 5815
5834 5837 5839 5842 5844 5847 5849 5854 5854 5855 5857 5858 5860 5861 5863 5864 5865 5866 5867 5868 5869 5869 5869 5870 5870 5869 5869 5868 5867 5865 5864 5862 5860 5857 5855 5852 5849 5847 5844 5841 5838 5834 5831 5828 5825 5822 5819 5817 5814
5832 5835 5838 5841 5843 5846 5848 5854 5852 5854 5855 5857 5859 5860 5862 5863 5864 5865 5866 5867 5868 5868 5869 5869 5869 5868 5868 5867 5865 5864 5862 5861 5859 5856 5854 5851 5849 5846 5843 5840 5837 5834 5830 5827 5824 5821 5818 5816 5813